EW3967 Weather Reports


Display with metric or nautical units.
time (UTC)temp
F
wind
direction
speed
MPH
gust
MPH
rain 1hr
in
rain 24hr
in
rain mn
in
humidity
%
barometer
mb
20260902201541 98 156 6.0 15.0 0.00 0.00 0.00 37 1010.6
20260902200039 98 158 2.0 15.0 0.00 0.00 0.00 40 1010.9
20260902194537 98 216 4.0 11.0 0.00 0.00 0.00 38 1011.1
20260902193034 98 120 4.0 7.0 0.00 0.00 0.00 38 1011.4
20260902191530 97 172 4.0 10.0 0.00 0.00 0.00 41 1011.6
20260902190036 97 96 4.0 10.0 0.00 0.00 0.00 39 1011.9
20260902184531 96 165 7.0 14.0 0.00 0.00 0.00 42 1012.1
20260902183023 96 150 3.0 14.0 0.00 0.00 0.00 44 1012.3
20260902181521 95 82 3.0 11.0 0.00 0.00 0.00 46 1012.7
20260902180021 95 157 5.0 13.0 0.00 0.00 0.00 45 1012.9
20260902174520 96 219 4.0 9.0 0.00 0.00 0.00 44 1013.1
20260902173016 94 158 3.0 10.0 0.00 0.00 0.00 46 1013.3
20260902171513 94 259 4.0 11.0 0.00 0.00 0.00 46 1013.5
20260902170009 94 141 2.0 10.0 0.00 0.00 0.00 46 1013.7
20260902164507 93 162 2.0 13.0 0.00 0.00 0.00 48 1013.8
20260902163000 93 173 3.0 12.0 0.00 0.00 0.00 48 1013.9
20260902161557 93 195 5.0 9.0 0.00 0.00 0.00 49 1014.0
20260902160055 92 200 2.0 10.0 0.00 0.00 0.00 50 1013.9
20260902154550 91 219 3.0 10.0 0.00 0.00 0.00 51 1013.9
20260902153046 90 182 4.0 11.0 0.00 0.00 0.00 53 1013.9
20260902151548 90 165 4.0 12.0 0.00 0.00 0.00 53 1014.1
20260902150040 89 231 6.0 12.0 0.00 0.00 0.00 55 1014.0
20260902144555 88 248 6.0 12.0 0.00 0.00 0.00 56 1014.1
20260902143036 87 184 5.0 11.0 0.00 0.00 0.00 58 1014.1
20260902141536 87 224 0.0 8.0 0.00 0.00 0.00 61 1014.1
20260902140029 85 243 2.0 9.0 0.00 0.00 0.00 62 1014.1
20260902134532 84 252 4.0 9.0 0.00 0.00 0.00 63 1014.1
20260902133025 82 221 2.0 9.0 0.00 0.00 0.00 66 1014.1
20260902131523 81 159 2.0 7.0 0.00 0.00 0.00 67 1014.2
20260902130030 80 184 1.0 5.0 0.00 0.00 0.00 69 1014.2
20260902124525 79 190 0.0 4.0 0.00 0.00 0.00 70 1014.0
20260902123019 77 168 2.0 5.0 0.00 0.00 0.00 72 1013.9
20260902121516 77 195 1.0 5.0 0.00 0.00 0.00 72 1013.6
20260902120015 77 160 1.0 5.0 0.00 0.00 0.00 72 1013.5
20260902114515 76 181 1.0 6.0 0.00 0.00 0.00 72 1013.4
20260902113011 76 201 2.0 5.0 0.00 0.00 0.00 71 1013.3
20260902111509 77 165 1.0 5.0 0.00 0.00 0.00 70 1013.2
20260902110008 77 154 1.0 5.0 0.00 0.00 0.00 69 1013.1
20260902104506 77 155 1.0 3.0 0.00 0.00 0.00 68 1013.2
20260902103004 78 160 1.0 5.0 0.00 0.00 0.00 68 1013.0
20260902101508 78 152 2.0 5.0 0.00 0.00 0.00 67 1012.9
20260902100110 78 158 2.0 5.0 0.00 0.00 0.00 66 1012.9
20260902094615 79 172 2.0 5.0 0.00 0.00 0.00 65 1012.7
20260902093055 79 159 2.0 5.0 0.00 0.00 0.00 64 1012.8
20260902091600 80 172 2.0 7.0 0.00 0.00 0.00 63 1012.7
20260902090052 80 149 2.0 6.0 0.00 0.00 0.00 62 1012.7
20260902084550 81 167 2.0 6.0 0.00 0.00 0.00 62 1012.7
20260902083054 81 174 3.0 8.0 0.00 0.00 0.00 61 1012.7
20260902081548 81 203 5.0 10.0 0.00 0.00 0.00 60 1012.6
20260902080108 82 140 3.0 8.0 0.00 0.00 0.00 60 1012.8
20260902074547 82 158 3.0 7.0 0.00 0.00 0.00 59 1012.8
20260902073048 82 204 3.0 7.0 0.00 0.00 0.00 59 1012.8
20260902071546 82 165 2.0 8.0 0.00 0.00 0.00 58 1012.8
20260902070045 81 170 2.0 5.0 0.00 0.00 0.00 59 1012.8
20260902064603 81 174 1.0 5.0 0.00 0.00 0.00 58 1012.7
20260902063046 82 170 1.0 6.0 0.00 0.00 0.00 57 1012.7
20260902061552 82 211 3.0 6.0 0.00 0.00 0.00 56 1012.6
20260902060038 82 145 2.0 8.0 0.00 0.00 0.00 56 1012.6
20260902054537 82 152 3.0 5.0 0.00 0.00 0.00 55 1012.5
20260902053035 83 161 2.0 6.0 0.00 0.00 0.00 55 1012.6
20260902051534 83 147 1.0 5.0 0.00 0.00 0.00 54 1012.6
20260902050032 83 155 2.0 5.0 0.00 0.00 0.00 54 1012.6
20260902044534 84 160 2.0 5.0 0.00 0.00 0.00 53 1012.6
20260902043034 84 158 1.0 5.0 0.00 0.00 0.00 52 1012.6
20260902041530 84 155 1.0 4.0 0.00 0.00 0.00 51 1012.6
20260902040029 85 162 1.0 4.0 0.00 0.00 0.00 50 1012.5
20260902034528 85 142 1.0 4.0 0.00 0.00 0.00 50 1012.5
20260902033045 85 187 2.0 5.0 0.00 0.00 0.00 49 1012.4
20260902031527 86 153 1.0 4.0 0.00 0.00 0.00 48 1012.3
20260902030027 86 171 2.0 6.0 0.00 0.00 0.00 47 1012.1
20260902024526 87 164 1.0 5.0 0.00 0.00 0.00 47 1011.8
20260902023025 87 184 2.0 5.0 0.00 0.00 0.00 46 1011.5
20260902021527 87 156 1.0 3.0 0.00 0.00 0.00 45 1011.2
20260902020031 87 159 0.0 2.0 0.00 0.00 0.00 44 1011.1
20260902014528 88 159 0.0 1.0 0.00 0.00 0.00 44 1010.9
20260902013023 89 159 0.0 1.0 0.00 0.00 0.00 42 1010.8
20260902011523 91 159 0.0 2.0 0.00 0.00 0.00 40 1010.7
20260902010022 92 158 0.0 3.0 0.00 0.00 0.00 39 1010.7
20260902004522 94 139 0.0 5.0 0.00 0.00 0.00 37 1010.6
20260902003021 95 156 4.0 9.0 0.00 0.00 0.00 36 1010.6
20260902001521 96 153 3.0 7.0 0.00 0.00 0.00 35 1010.7
20260902000019 96 146 2.0 8.0 0.00 0.00 0.00 35 1010.7
20260901234519 97 117 4.0 10.0 0.00 0.00 0.00 34 1010.8
20260901233027 98 160 4.0 9.0 0.00 0.00 0.00 33 1010.9
20260901231514 98 131 2.0 8.0 0.00 0.00 0.00 33 1010.9
20260901230010 99 148 4.0 11.0 0.00 0.00 0.00 30 1011.0
20260901224523 98 166 4.0 10.0 0.00 0.00 0.00 32 1011.0
20260901223006 96 115 3.0 7.0 0.00 0.00 0.00 32 1011.0
20260901221504 97 155 6.0 12.0 0.00 0.00 0.00 32 1010.9
20260901220004 98 122 5.0 11.0 0.00 0.00 0.00 31 1011.0
20260901214501 97 148 0.0 5.0 0.00 0.00 0.00 31 1011.1
20260901213100 98 169 4.0 10.0 0.00 0.00 0.00 30 1011.2
20260901211559 97 131 4.0 10.0 0.00 0.00 0.00 30 1011.3
20260901210056 98 233 4.0 8.0 0.00 0.00 0.00 30 1011.5
20260901204555 97 105 3.0 7.0 0.00 0.00 0.00 30 1011.7
20260901203052 98 163 5.0 10.0 0.00 0.00 0.00 29 1011.9